COSMOS 2428 (31792 NORAD) Tracking and Keplerian Element Data

This shows tracking and keplerian element data for the satellite.

Feedback or suggestion? Click here.




ElementValue
Catalog31792
NameCOSMOS 2428
Epoch Orbit58652
Epoch Day316.36580076
Epoch Year2018
RAAN56.0805
Inclination70.9681
Eccentricity0.0010903
Argument of Perigee228.5891
Mean Anonmoly131.4294
Mean Motion14.12554184
Decay Rate-1.41E-06
L11 31792U 07029A 18316.36580076 -.00000141 00000-0 -50369-4 0 9999
L22 31792 70.9681 56.0805 0010903 228.5891 131.4294 14.12554184586522

Live tracking and technical data element details for COSMOS 2428 (NORAD 31792). COSMOS 2428 can be tracked NOW for your location showing map with azimuth and elevation plus other details from your city location.

Track the satellite on the map from your city or location and see movement details for azimuth, elevation, latitude, longitude, range, height, and movement on the map or in text.







IsCatalogInMostPopularTable: catalog: 31792, numindb: 53
Update: records affected: 1



GetName: 31792 COSMOS 2428

Hit Count: updated at: Mon, 12 Nov 2018 21:43:05 GMT